Kerkyra, Greece

3:20 PM EET on January 19, 2018 (GMT +0200)
Ioannis Kapodistrias

Weather History for LGKR - January, 2018

Change the Weather History Date:

Sunday, January 14, 2018

  Actual Average Record
Temperature  
Mean Temperature 51 °F -  
Max Temperature 56 °F 57 °F 64 °F (2014)
Min Temperature 46 °F 41 °F 32 °F (2006)
Degree Days  
Heating Degree Days 14    
Growing Degree Days 1 (Base 50)    
Moisture  
Dew Point 44 °F    
Average Humidity 79    
Maximum Humidity 94    
Minimum Humidity 44    
Precipitation  
Precipitation 0.04 in 0.18 in - ()
Sea Level Pressure  
Sea Level Pressure 30.12 in    
Wind  
Wind Speed 4 mph ()    
Max Wind Speed 12 mph    
Max Gust Speed -    
Visibility 6.7 miles    
Events Rain , Thunderstorm    
Averages and records for this station are not official NWS values.
T = Trace of Precipitation, MM = Missing Value Source: Averaged Metar Reports

Daily Weather History Graph

Daily Weather History Graph

Search for Another Location

Airport or City:

Trip Planner

Search our weather history database for the weather conditions in past years. The results will help you decide how hot, cold, wet, or windy it might be!

Date:

Astronomy

Jan. 14, 2018 Rise Set
Actual Time 7:59 AM EET 5:39 PM EET
Civil Twilight 7:30 AM EET 6:08 PM EET
Nautical Twilight 6:56 AM EET 6:42 PM EET
Astronomical Twilight 6:24 AM EET 7:14 PM EET
Moon 5:39 AM EET (1/14) 3:43 PM EET (1/14)
Length of Visible Light 10h 38m
Length of Day
9h 39m
Waning Crescent, 6% of the Moon is Illuminated
Jan 14
Waning Crescent
Jan 17
New
Jan 25
First Quarter
Jan 31
Full
Feb 7
Last Quarter

Hourly Weather History & Observations

Time (EET) Temp. Windchill Dew Point Humidity Pressure Visibility Wind Dir Wind Speed Gust Speed Precip Events Conditions
12:20 AM 46.4 °F - 44.6 °F 93% 30.01 in - Calm Calm - N/A   Clear
12:50 AM 46.4 °F - 44.6 °F 93% 30.01 in - Calm Calm - N/A   Clear
1:20 AM 46.4 °F - 44.6 °F 93% 30.01 in - Calm Calm - N/A   Clear
1:50 AM 46.4 °F - 44.6 °F 93% 30.01 in - NW 2.3 mph - N/A   Clear
2:00 AM 46 °F - 45 °F 94% 30.01 in 6 mi NW 2.3 mph - -   Partly Cloudy
2:20 AM 46.4 °F - 44.6 °F 93% 30.01 in - Calm Calm - N/A   Clear
2:50 AM 46.4 °F 45.2 °F 44.6 °F 93% 30.01 in - NW 3.5 mph - N/A   Clear
3:20 AM 46.4 °F 42.9 °F 42.8 °F 87% 30.01 in - East 6.9 mph - N/A   Clear
3:50 AM 46.4 °F 41.9 °F 44.6 °F 93% 30.04 in - ESE 9.2 mph - N/A   Clear
4:20 AM 50.0 °F - 42.8 °F 76% 30.04 in - East 6.9 mph - N/A   Clear
4:50 AM 53.6 °F - 41.0 °F 62% 30.04 in - East 5.8 mph - N/A   Clear
5:00 AM 54 °F - 41 °F 51% 30.04 in 6 mi East 5.8 mph - -   Mostly Cloudy
5:20 AM 53.6 °F - 42.8 °F 67% 30.04 in - East 4.6 mph - N/A   Clear
5:50 AM 51.8 °F - 42.8 °F 71% 30.04 in - East 4.6 mph - N/A   Clear
6:20 AM 51.8 °F - 42.8 °F 71% 30.04 in - West 3.5 mph - N/A   Clear
6:50 AM 48.2 °F - 44.6 °F 87% 30.06 in - West 4.6 mph - N/A   Clear
7:20 AM 48.2 °F - 44.6 °F 87% 30.06 in 6.2 mi West 3.5 mph - N/A   Mostly Cloudy
7:50 AM 46.4 °F 45.2 °F 44.6 °F 93% 30.06 in 6.2 mi West 3.5 mph - N/A   Mostly Cloudy
8:00 AM 47 °F - 44 °F 87% 30.09 in 12 mi West 3.5 mph - -   Partly Cloudy
8:20 AM 46.4 °F 45.2 °F 44.6 °F 93% 30.06 in 6.2 mi WNW 3.5 mph - N/A   Mostly Cloudy
8:50 AM 50.0 °F - 46.4 °F 87% 30.09 in 6.2 mi NW 3.5 mph - N/A   Mostly Cloudy
9:20 AM 53.6 °F - 48.2 °F 82% 30.09 in 6.2 mi WNW 3.5 mph - N/A   Mostly Cloudy
9:50 AM 53.6 °F - 46.4 °F 77% 30.12 in 6.2 mi Calm Calm - N/A   Mostly Cloudy
10:20 AM 53.6 °F - 46.4 °F 77% 30.12 in 6.2 mi Calm Calm - N/A   Mostly Cloudy
10:50 AM 51.8 °F - 48.2 °F 88% 30.15 in 6.2 mi SE 6.9 mph - N/A   Mostly Cloudy
11:00 AM 51 °F - 47 °F 83% 30.15 in 12 mi SE 6.9 mph - -   Mostly Cloudy
11:20 AM 51.8 °F - 48.2 °F 88% 30.15 in 6.2 mi SSE 9.2 mph - N/A   Mostly Cloudy
11:50 AM 53.6 °F - 46.4 °F 77% 30.15 in 6.2 mi ESE 6.9 mph - N/A   Mostly Cloudy
12:20 PM 53.6 °F - 46.4 °F 77% 30.15 in 6.2 mi SSE 11.5 mph - N/A   Mostly Cloudy
12:50 PM 55.4 °F - 41.0 °F 58% 30.15 in 6.2 mi SSE 10.4 mph - N/A   Mostly Cloudy
1:20 PM 55.4 °F - 41.0 °F 58% 30.15 in 6.2 mi SE 10.4 mph - N/A   Mostly Cloudy
1:50 PM 55.4 °F - 41.0 °F 58% 30.15 in 6.2 mi South 11.5 mph - N/A   Mostly Cloudy
2:00 PM 56 °F - 40 °F 44% 30.17 in 12 mi South 11.5 mph - -   Mostly Cloudy
2:20 PM 55.4 °F - 41.0 °F 58% 30.15 in 6.2 mi SSE 11.5 mph - N/A   Mostly Cloudy
2:50 PM 55.4 °F - 42.8 °F 63% 30.15 in 6.2 mi SE 9.2 mph - N/A   Mostly Cloudy
3:20 PM 55.4 °F - 42.8 °F 63% 30.15 in 6.2 mi SSE 6.9 mph - N/A   Mostly Cloudy
3:50 PM 55.4 °F - 41.0 °F 58% 30.15 in 6.2 mi SSE 6.9 mph - N/A   Mostly Cloudy
4:20 PM 55.4 °F - 41.0 °F 58% 30.15 in 6.2 mi SSE 9.2 mph - N/A   Mostly Cloudy
4:50 PM 55.4 °F - 42.8 °F 63% 30.15 in 6.2 mi SE 9.2 mph - N/A   Mostly Cloudy
5:00 PM 55 °F - 42 °F 51% 30.17 in 12 mi SE 9.2 mph - -   Mostly Cloudy
5:20 PM 55.4 °F - 42.8 °F 63% 30.15 in 6.2 mi SSE 9.2 mph - N/A Rain Light Rain
5:50 PM 53.6 °F - 44.6 °F 72% 30.15 in 6.2 mi SSE 10.4 mph - N/A Rain Rain
6:20 PM 53.6 °F - 48.2 °F 82% 30.15 in 5.0 mi South 4.6 mph - N/A Rain Rain
6:50 PM 50.0 °F - 48.2 °F 94% 30.21 in 6.2 mi East 6.9 mph - N/A Rain Light Rain
7:20 PM 50.0 °F - 48.2 °F 94% 30.21 in 6.2 mi NNE 8.1 mph - N/A   Mostly Cloudy
7:50 PM 50.0 °F - 46.4 °F 87% 30.21 in 6.2 mi NE 3.5 mph - N/A   Mostly Cloudy
8:00 PM 49 °F - 46 °F 83% 30.23 in 6 mi NE 3.5 mph - -   Partly Cloudy
8:20 PM 50.0 °F - 46.4 °F 87% 30.21 in 6.2 mi Calm Calm - N/A   Mostly Cloudy
8:50 PM 48.2 °F - 44.6 °F 87% 30.21 in 6.2 mi Calm Calm - N/A   Mostly Cloudy
9:20 PM 48.2 °F - 44.6 °F 87% 30.21 in 6.2 mi Calm Calm - N/A   Mostly Cloudy
9:50 PM 50.0 °F - 44.6 °F 82% 30.21 in 6.2 mi Calm Calm - N/A   Mostly Cloudy
10:20 PM 50.0 °F - 44.6 °F 82% 30.21 in 6.2 mi East 5.8 mph - N/A   Mostly Cloudy
10:50 PM 48.2 °F - 46.4 °F 93% 30.24 in 6.2 mi West 3.5 mph - N/A   Mostly Cloudy
11:00 PM 49 °F - 46 °F 86% 30.26 in 6 mi West 3.5 mph - -   Mostly Cloudy
11:20 PM 48.2 °F - 46.4 °F 93% 30.24 in 6.2 mi East 6.9 mph - N/A Rain Light Rain
11:50 PM 48.2 °F - 46.4 °F 93% 30.24 in 6.2 mi SW 3.5 mph - N/A Rain , Thunderstorm Light Thunderstorms and Rain